Time,TemperatureF,DewpointF,PressureIn,WindDirection,WindDirectionDegrees,WindSpeedMPH,WindSpeedGustMPH,Humidity,HourlyPrecipIn,Conditions,Clouds,dailyrainin,SoftwareType,DateUTC
2013-01-27 00:00:00,12.9,0.5,30.44,NE,45,3.0,4.6,57,0.00,CLR,,0.00,WeatherDisplay:10.37,2013-01-27 05:00:00,
2013-01-27 00:01:00,12.9,0.1,30.44,WNW,292,2.7,4.6,56,0.00,CLR,,0.00,WeatherDisplay:10.37,2013-01-27 05:01:00,
2013-01-27 00:02:00,12.9,0.5,30.44,West,270,2.5,4.6,57,0.00,CLR,,0.00,WeatherDisplay:10.37,2013-01-27 05:02:00,
2013-01-27 00:07:00,12.9,0.5,30.45,WNW,292,2.4,5.8,57,0.00,CLR,,0.00,WeatherDisplay:10.37,2013-01-27 05:07:00,
2013-01-27 00:12:00,12.8,0.4,30.45,NE,45,2.6,8.1,57,0.00,CLR,,0.00,WeatherDisplay:10.37,2013-01-27 05:12:00,
2013-01-27 00:17:00,12.8,0.8,30.45,WSW,247,1.0,3.5,58,0.00,CLR,,0.00,WeatherDisplay:10.37,2013-01-27 05:17:00,
2013-01-27 00:22:00,12.8,0.4,30.45,NNE,22,2.7,5.8,57,0.00,CLR,,0.00,WeatherDisplay:10.37,2013-01-27 05:22:00,
2013-01-27 00:27:00,12.6,0.6,30.45,NNW,337,1.6,3.0,58,0.00,CLR,,0.00,WeatherDisplay:10.37,2013-01-27 05:27:00,
2013-01-27 00:32:00,12.4,0.8,30.45,NW,315,0.9,3.5,59,0.00,CLR,,0.00,WeatherDisplay:10.37,2013-01-27 05:32:00,
2013-01-27 00:37:00,12.2,0.6,30.46,WNW,292,1.2,2.3,59,0.00,CLR,,0.00,WeatherDisplay:10.37,2013-01-27 05:37:00,
2013-01-27 00:42:00,12.2,0.6,30.46,NW,315,1.4,3.5,59,0.00,CLR,,0.00,WeatherDisplay:10.37,2013-01-27 05:42:00,
2013-01-27 00:47:00,12.2,0.9,30.46,SSW,202,1.1,3.5,60,0.00,CLR,,0.00,WeatherDisplay:10.37,2013-01-27 05:47:00,
2013-01-27 00:52:00,12.2,0.9,30.46,WNW,292,1.7,5.8,60,0.00,CLR,,0.00,WeatherDisplay:10.37,2013-01-27 05:52:00,
2013-01-27 00:57:00,11.9,0.7,30.46,West,270,0.4,3.5,60,0.00,CLR,,0.00,WeatherDisplay:10.37,2013-01-27 05:57:00,
2013-01-27 01:02:00,12.2,0.9,30.46,West,270,2.1,4.0,60,0.00,CLR,,0.00,WeatherDisplay:10.37,2013-01-27 06:02:00,
2013-01-27 01:07:00,12.2,0.9,30.46,WSW,247,0.6,2.3,60,0.00,CLR,,0.00,WeatherDisplay:10.37,2013-01-27 06:07:00,
2013-01-27 01:12:00,12.3,1.0,30.46,SE,135,1.7,3.5,60,0.00,CLR,,0.00,WeatherDisplay:10.37,2013-01-27 06:12:00,
2013-01-27 01:17:00,12.3,1.0,30.46,NW,315,2.9,6.9,60,0.00,CLR,,0.00,WeatherDisplay:10.37,2013-01-27 06:17:00,
2013-01-27 01:22:00,12.3,1.4,30.46,WSW,247,2.5,5.8,61,0.00,CLR,,0.00,WeatherDisplay:10.37,2013-01-27 06:22:00,
2013-01-27 01:27:00,12.3,1.4,30.46,WNW,292,2.3,4.6,61,0.00,CLR,,0.00,WeatherDisplay:10.37,2013-01-27 06:27:00,
2013-01-27 01:32:00,12.2,1.3,30.47,WNW,292,2.1,3.5,61,0.00,CLR,,0.00,WeatherDisplay:10.37,2013-01-27 06:32:00,
2013-01-27 01:37:00,12.1,1.6,30.47,North,360,2.3,4.6,62,0.00,CLR,,0.00,WeatherDisplay:10.37,2013-01-27 06:37:00,
2013-01-27 01:42:00,12.1,1.6,30.48,NNW,337,1.7,3.5,62,0.00,CLR,,0.00,WeatherDisplay:10.37,2013-01-27 06:42:00,
2013-01-27 01:47:00,11.9,1.4,30.48,North,360,1.6,3.5,62,0.00,CLR,,0.00,WeatherDisplay:10.37,2013-01-27 06:47:00,
2013-01-27 01:52:00,11.8,1.6,30.48,WNW,292,0.1,2.3,63,0.00,CLR,,0.00,WeatherDisplay:10.37,2013-01-27 06:52:00,
2013-01-27 01:57:00,11.7,1.5,30.48,WNW,292,1.4,4.0,63,0.00,CLR,,0.00,WeatherDisplay:10.37,2013-01-27 06:57:00,
2013-01-27 02:02:00,11.7,1.5,30.48,West,270,2.4,4.6,63,0.00,CLR,,0.00,WeatherDisplay:10.37,2013-01-27 07:02:00,
2013-01-27 02:07:00,11.6,1.4,30.48,NNW,337,0.8,2.3,63,0.00,CLR,,0.00,WeatherDisplay:10.37,2013-01-27 07:07:00,
2013-01-27 02:13:00,11.6,1.8,30.48,NW,315,2.3,3.5,64,0.00,CLR,,0.00,WeatherDisplay:10.37,2013-01-27 07:13:00,
2013-01-27 02:18:00,11.6,1.8,30.48,West,270,1.2,2.3,64,0.00,CLR,,0.00,WeatherDisplay:10.37,2013-01-27 07:18:00,
2013-01-27 02:23:00,11.7,1.9,30.48,WNW,292,1.7,3.5,64,0.00,CLR,,0.00,WeatherDisplay:10.37,2013-01-27 07:23:00,
2013-01-27 02:28:00,11.9,1.7,30.48,West,270,1.2,2.3,63,0.00,CLR,,0.00,WeatherDisplay:10.37,2013-01-27 07:28:00,
2013-01-27 02:33:00,11.7,1.9,30.48,North,360,1.1,2.3,64,0.00,CLR,,0.00,WeatherDisplay:10.37,2013-01-27 07:33:00,
2013-01-27 02:38:00,11.6,1.8,30.49,West,270,1.4,2.3,64,0.00,CLR,,0.00,WeatherDisplay:10.37,2013-01-27 07:38:00,
2013-01-27 02:43:00,11.7,1.9,30.49,WNW,292,2.5,4.6,64,0.00,CLR,,0.00,WeatherDisplay:10.37,2013-01-27 07:43:00,
2013-01-27 02:48:00,11.7,2.2,30.49,West,270,1.2,4.6,65,0.00,CLR,,0.00,WeatherDisplay:10.37,2013-01-27 07:48:00,
2013-01-27 02:53:00,11.8,2.0,30.49,West,270,2.2,3.5,64,0.00,CLR,,0.00,WeatherDisplay:10.37,2013-01-27 07:53:00,
2013-01-27 02:58:00,11.9,2.0,30.49,WSW,247,2.1,6.0,64,0.00,CLR,,0.00,WeatherDisplay:10.37,2013-01-27 07:58:00,
2013-01-27 03:03:00,11.9,2.0,30.49,West,270,2.2,4.6,64,0.00,CLR,,0.00,WeatherDisplay:10.37,2013-01-27 08:03:00,
2013-01-27 03:08:00,11.9,2.0,30.49,NW,315,1.7,3.5,64,0.00,CLR,,0.00,WeatherDisplay:10.37,2013-01-27 08:08:00,
2013-01-27 03:13:00,11.9,2.0,30.49,WNW,292,1.8,3.5,64,0.00,CLR,,0.00,WeatherDisplay:10.37,2013-01-27 08:13:00,
2013-01-27 03:18:00,11.9,2.0,30.49,WSW,247,1.8,3.5,64,0.00,CLR,,0.00,WeatherDisplay:10.37,2013-01-27 08:18:00,
2013-01-27 03:23:00,11.9,2.0,30.50,WSW,247,1.4,3.5,64,0.00,CLR,,0.00,WeatherDisplay:10.37,2013-01-27 08:23:00,
2013-01-27 03:28:00,12.1,2.2,30.50,West,270,2.5,4.6,64,0.00,CLR,,0.00,WeatherDisplay:10.37,2013-01-27 08:28:00,
2013-01-27 03:33:00,11.9,2.4,30.50,West,270,1.5,3.5,65,0.00,CLR,,0.00,WeatherDisplay:10.37,2013-01-27 08:33:00,
2013-01-27 03:38:00,11.9,2.4,30.49,NNW,337,2.0,3.5,65,0.00,CLR,,0.00,WeatherDisplay:10.37,2013-01-27 08:38:00,
2013-01-27 03:43:00,11.9,2.0,30.50,NW,315,1.4,3.5,64,0.00,CLR,,0.00,WeatherDisplay:10.37,2013-01-27 08:43:00,
2013-01-27 03:48:00,11.9,2.0,30.50,WNW,292,2.1,4.6,64,0.00,CLR,,0.00,WeatherDisplay:10.37,2013-01-27 08:48:00,
2013-01-27 03:53:00,11.9,2.0,30.49,NNE,22,1.0,2.3,64,0.00,CLR,,0.00,WeatherDisplay:10.37,2013-01-27 08:53:00,
2013-01-27 03:58:00,11.9,2.0,30.50,WSW,247,0.5,2.3,64,0.00,CLR,,0.00,WeatherDisplay:10.37,2013-01-27 08:58:00,
2013-01-27 04:03:00,12.1,2.2,30.50,SE,135,1.0,2.3,64,0.00,CLR,,0.00,WeatherDisplay:10.37,2013-01-27 09:03:00,
2013-01-27 04:08:00,11.9,2.4,30.50,NE,45,2.4,5.8,65,0.00,CLR,,0.00,WeatherDisplay:10.37,2013-01-27 09:08:00,
2013-01-27 04:13:00,11.7,2.5,30.50,West,270,1.0,2.3,66,0.00,CLR,,0.00,WeatherDisplay:10.37,2013-01-27 09:13:00,
2013-01-27 04:18:00,11.6,2.8,30.50,North,360,0.6,2.3,67,0.00,CLR,,0.00,WeatherDisplay:10.37,2013-01-27 09:18:00,
2013-01-27 04:23:00,11.8,2.3,30.50,WSW,247,1.5,3.5,65,0.00,CLR,,0.00,WeatherDisplay:10.37,2013-01-27 09:23:00,
2013-01-27 04:28:00,11.8,2.3,30.50,WNW,292,2.0,3.5,65,0.00,CLR,,0.00,WeatherDisplay:10.37,2013-01-27 09:28:00,
2013-01-27 04:33:00,12.1,2.6,30.51,West,270,2.9,4.6,65,0.00,CLR,,0.00,WeatherDisplay:10.37,2013-01-27 09:33:00,
2013-01-27 04:38:00,12.3,2.8,30.50,WSW,247,1.9,3.5,65,0.00,CLR,,0.00,WeatherDisplay:10.37,2013-01-27 09:38:00,
2013-01-27 04:43:00,12.3,2.8,30.50,WSW,247,2.0,4.6,65,0.00,CLR,,0.00,WeatherDisplay:10.37,2013-01-27 09:43:00,
2013-01-27 04:48:00,12.2,2.7,30.50,West,270,2.1,5.8,65,0.00,CLR,,0.00,WeatherDisplay:10.37,2013-01-27 09:48:00,
2013-01-27 04:53:00,12.3,2.8,30.50,North,360,3.1,8.1,65,0.00,CLR,,0.00,WeatherDisplay:10.37,2013-01-27 09:53:00,
2013-01-27 04:58:00,12.5,3.0,30.50,NNW,337,1.9,5.8,65,0.00,CLR,,0.00,WeatherDisplay:10.37,2013-01-27 09:58:00,
2013-01-27 05:03:00,12.6,2.7,30.51,WNW,292,2.9,4.6,64,0.00,CLR,,0.00,WeatherDisplay:10.37,2013-01-27 10:03:00,
2013-01-27 05:08:00,12.7,2.8,30.51,WNW,292,2.4,6.9,64,0.00,CLR,,0.00,WeatherDisplay:10.37,2013-01-27 10:08:00,
2013-01-27 05:13:00,12.6,3.1,30.51,WNW,292,2.1,4.0,65,0.00,CLR,,0.00,WeatherDisplay:10.37,2013-01-27 10:13:00,
2013-01-27 05:18:00,12.6,3.1,30.51,West,270,2.5,4.6,65,0.00,CLR,,0.00,WeatherDisplay:10.37,2013-01-27 10:18:00,
2013-01-27 05:23:00,12.6,3.1,30.51,WNW,292,1.7,4.0,65,0.00,CLR,,0.00,WeatherDisplay:10.37,2013-01-27 10:23:00,
2013-01-27 05:28:00,12.5,3.0,30.52,North,360,1.8,4.0,65,0.00,CLR,,0.00,WeatherDisplay:10.37,2013-01-27 10:28:00,
2013-01-27 05:33:00,12.4,2.9,30.52,NW,315,2.5,6.9,65,0.00,CLR,,0.00,WeatherDisplay:10.37,2013-01-27 10:33:00,
2013-01-27 05:38:00,12.4,3.2,30.52,West,270,1.7,3.5,66,0.00,CLR,,0.00,WeatherDisplay:10.37,2013-01-27 10:38:00,
2013-01-27 05:43:00,12.5,3.0,30.52,West,270,3.7,8.1,65,0.00,CLR,,0.00,WeatherDisplay:10.37,2013-01-27 10:43:00,
2013-01-27 05:48:00,12.5,3.0,30.52,West,270,1.7,3.5,65,0.00,CLR,,0.00,WeatherDisplay:10.37,2013-01-27 10:48:00,
2013-01-27 05:53:00,12.5,3.0,30.52,West,270,2.0,4.6,65,0.00,CLR,,0.00,WeatherDisplay:10.37,2013-01-27 10:53:00,
2013-01-27 05:58:00,12.3,3.1,30.52,WNW,292,2.7,9.2,66,0.00,CLR,,0.00,WeatherDisplay:10.37,2013-01-27 10:58:00,
2013-01-27 06:03:00,12.4,3.2,30.52,WNW,292,3.3,6.9,66,0.00,CLR,,0.00,WeatherDisplay:10.37,2013-01-27 11:03:00,
2013-01-27 06:08:00,12.4,3.2,30.53,WNW,292,4.1,8.1,66,0.00,CLR,,0.00,WeatherDisplay:10.37,2013-01-27 11:08:00,
2013-01-27 06:13:00,12.3,3.1,30.53,NW,315,2.5,5.8,66,0.00,CLR,,0.00,WeatherDisplay:10.37,2013-01-27 11:13:00,
2013-01-27 06:18:00,12.1,3.2,30.53,NNE,22,2.2,4.6,67,0.00,CLR,,0.00,WeatherDisplay:10.37,2013-01-27 11:18:00,
2013-01-27 06:23:00,12.2,3.3,30.53,West,270,2.3,6.9,67,0.00,CLR,,0.00,WeatherDisplay:10.37,2013-01-27 11:23:00,
2013-01-27 06:28:00,12.1,3.2,30.53,NNW,337,3.2,5.0,67,0.00,CLR,,0.00,WeatherDisplay:10.37,2013-01-27 11:28:00,
2013-01-27 06:33:00,12.2,3.3,30.53,WNW,292,2.0,3.5,67,0.00,CLR,,0.00,WeatherDisplay:10.37,2013-01-27 11:33:00,
2013-01-27 06:38:00,12.2,3.3,30.53,WNW,292,3.1,9.2,67,0.00,CLR,,0.00,WeatherDisplay:10.37,2013-01-27 11:38:00,
2013-01-27 06:43:00,12.3,3.4,30.53,West,270,2.7,9.2,67,0.00,CLR,,0.00,WeatherDisplay:10.37,2013-01-27 11:43:00,
2013-01-27 06:48:00,12.3,3.1,30.53,NW,315,4.1,12.7,66,0.00,CLR,,0.00,WeatherDisplay:10.37,2013-01-27 11:48:00,
2013-01-27 06:53:00,12.5,3.6,30.53,North,360,4.9,9.2,67,0.00,CLR,,0.00,WeatherDisplay:10.37,2013-01-27 11:53:00,
2013-01-27 06:58:00,12.6,3.4,30.53,West,270,3.6,11.5,66,0.00,CLR,,0.00,WeatherDisplay:10.37,2013-01-27 11:58:00,
2013-01-27 07:03:00,12.6,3.4,30.53,North,360,2.0,5.8,66,0.00,CLR,,0.00,WeatherDisplay:10.37,2013-01-27 12:03:00,
2013-01-27 07:08:00,12.5,3.3,30.54,WNW,292,2.5,5.8,66,0.00,CLR,,0.00,WeatherDisplay:10.37,2013-01-27 12:08:00,
2013-01-27 07:13:00,12.5,3.3,30.54,West,270,2.4,5.8,66,0.00,CLR,,0.00,WeatherDisplay:10.37,2013-01-27 12:13:00,
2013-01-27 07:18:00,12.5,3.6,30.54,WNW,292,2.1,4.6,67,0.00,CLR,,0.00,WeatherDisplay:10.37,2013-01-27 12:18:00,
2013-01-27 07:23:00,12.4,3.5,30.55,WNW,292,2.1,4.6,67,0.00,CLR,,0.00,WeatherDisplay:10.37,2013-01-27 12:23:00,
2013-01-27 07:28:00,12.3,3.4,30.55,West,270,1.7,3.5,67,0.00,CLR,,0.00,WeatherDisplay:10.37,2013-01-27 12:28:00,
2013-01-27 07:33:00,12.5,3.6,30.56,WNW,292,4.6,11.5,67,0.00,CLR,,0.00,WeatherDisplay:10.37,2013-01-27 12:33:00,
2013-01-27 07:38:00,12.6,3.4,30.55,WSW,247,2.3,5.8,66,0.00,CLR,,0.00,WeatherDisplay:10.37,2013-01-27 12:38:00,
2013-01-27 07:43:00,12.7,3.5,30.56,WNW,292,3.1,4.6,66,0.00,CLR,,0.00,WeatherDisplay:10.37,2013-01-27 12:43:00,
2013-01-27 07:48:00,12.9,3.7,30.56,West,270,3.1,9.2,66,0.00,CLR,,0.00,WeatherDisplay:10.37,2013-01-27 12:48:00,
2013-01-27 07:53:00,12.9,3.3,30.56,WNW,292,1.2,4.6,65,0.00,CLR,,0.00,WeatherDisplay:10.37,2013-01-27 12:53:00,
2013-01-27 07:58:00,13.2,3.6,30.56,WNW,292,2.6,5.8,65,0.00,CLR,,0.00,WeatherDisplay:10.37,2013-01-27 12:58:00,
2013-01-27 08:03:00,13.4,3.5,30.56,NE,45,1.3,5.8,64,0.00,CLR,,0.00,WeatherDisplay:10.37,2013-01-27 13:03:00,
2013-01-27 08:08:00,13.6,3.7,30.57,NW,315,2.8,9.2,64,0.00,CLR,,0.00,WeatherDisplay:10.37,2013-01-27 13:08:00,
2013-01-27 08:13:00,13.9,3.3,30.57,NW,315,4.9,11.5,62,0.00,CLR,,0.00,WeatherDisplay:10.37,2013-01-27 13:13:00,
2013-01-27 08:18:00,14.3,3.6,30.57,SSE,157,1.4,2.3,62,0.00,CLR,,0.00,WeatherDisplay:10.37,2013-01-27 13:18:00,
2013-01-27 08:23:00,14.8,3.8,30.57,NW,315,3.7,6.9,61,0.00,CLR,,0.00,WeatherDisplay:10.37,2013-01-27 13:23:00,
2013-01-27 08:28:00,15.1,3.7,30.57,SSW,202,3.7,9.2,60,0.00,CLR,,0.00,WeatherDisplay:10.37,2013-01-27 13:28:00,
2013-01-27 08:33:00,15.4,4.0,30.57,NW,315,4.9,8.1,60,0.00,CLR,,0.00,WeatherDisplay:10.37,2013-01-27 13:33:00,
2013-01-27 08:38:00,15.6,3.8,30.57,WSW,247,3.4,9.2,59,0.00,CLR,,0.00,WeatherDisplay:10.37,2013-01-27 13:38:00,
2013-01-27 08:43:00,15.7,3.9,30.57,West,270,3.7,6.9,59,0.00,CLR,,0.00,WeatherDisplay:10.37,2013-01-27 13:43:00,
2013-01-27 08:48:00,15.9,3.3,30.58,West,270,3.2,5.8,57,0.00,CLR,,0.00,WeatherDisplay:10.37,2013-01-27 13:48:00,
2013-01-27 08:53:00,16.2,3.2,30.58,North,360,3.0,5.8,56,0.00,CLR,,0.00,WeatherDisplay:10.37,2013-01-27 13:53:00,
2013-01-27 08:58:00,16.5,3.5,30.57,North,360,2.4,6.9,56,0.00,CLR,,0.00,WeatherDisplay:10.37,2013-01-27 13:58:00,
2013-01-27 09:03:00,16.5,3.1,30.57,WNW,292,4.9,13.8,55,0.00,CLR,,0.00,WeatherDisplay:10.37,2013-01-27 14:03:00,
2013-01-27 09:08:00,16.8,3.4,30.57,NW,315,2.5,5.8,55,0.00,CLR,,0.00,WeatherDisplay:10.37,2013-01-27 14:08:00,
2013-01-27 09:13:00,17.0,3.6,30.58,NNW,337,1.4,5.8,55,0.00,CLR,,0.00,WeatherDisplay:10.37,2013-01-27 14:13:00,
2013-01-27 09:18:00,17.3,3.5,30.57,NNE,22,3.0,6.9,54,0.00,CLR,,0.00,WeatherDisplay:10.37,2013-01-27 14:18:00,
2013-01-27 09:23:00,17.5,3.7,30.58,SW,225,4.8,9.2,54,0.00,CLR,,0.00,WeatherDisplay:10.37,2013-01-27 14:23:00,
2013-01-27 09:28:00,17.6,3.3,30.58,NNE,22,3.9,9.2,53,0.00,CLR,,0.00,WeatherDisplay:10.37,2013-01-27 14:28:00,
2013-01-27 09:33:00,17.9,2.8,30.59,North,360,2.3,7.0,51,0.00,CLR,,0.00,WeatherDisplay:10.37,2013-01-27 14:33:00,
2013-01-27 09:38:00,18.2,3.1,30.58,North,360,3.5,9.2,51,0.00,CLR,,0.00,WeatherDisplay:10.37,2013-01-27 14:38:00,
2013-01-27 09:43:00,18.5,3.4,30.58,SE,135,4.0,10.4,51,0.00,CLR,,0.00,WeatherDisplay:10.37,2013-01-27 14:43:00,
2013-01-27 09:48:00,18.9,3.7,30.59,West,270,1.7,6.9,51,0.00,CLR,,0.00,WeatherDisplay:10.37,2013-01-27 14:48:00,
2013-01-27 09:53:00,19.6,3.9,30.58,West,270,3.0,7.0,50,0.00,CLR,,0.00,WeatherDisplay:10.37,2013-01-27 14:53:00,
2013-01-27 09:58:00,20.0,3.4,30.58,NW,315,5.0,10.4,48,0.00,CLR,,0.00,WeatherDisplay:10.37,2013-01-27 14:58:00,
2013-01-27 10:03:00,20.2,3.2,30.59,SE,135,2.7,5.8,47,0.00,CLR,,0.00,WeatherDisplay:10.37,2013-01-27 15:03:00,
2013-01-27 10:08:00,20.8,3.7,30.58,NNW,337,4.1,10.4,47,0.00,CLR,,0.00,WeatherDisplay:10.37,2013-01-27 15:08:00,
2013-01-27 10:13:00,21.3,3.7,30.58,NE,45,3.8,4.6,46,0.00,CLR,,0.00,WeatherDisplay:10.37,2013-01-27 15:13:00,
2013-01-27 10:18:00,21.7,3.6,30.58,NE,45,1.5,4.0,45,0.00,CLR,,0.00,WeatherDisplay:10.37,2013-01-27 15:18:00,
2013-01-27 10:23:00,22.1,3.0,30.56,NE,45,1.6,3.5,43,0.00,CLR,,0.00,WeatherDisplay:10.37,2013-01-27 15:23:00,
2013-01-27 10:28:00,22.9,3.7,30.57,North,360,2.8,5.8,43,0.00,CLR,,0.00,WeatherDisplay:10.37,2013-01-27 15:28:00,
2013-01-27 10:33:00,22.9,3.2,30.57,NW,315,3.0,6.9,42,0.00,CLR,,0.00,WeatherDisplay:10.37,2013-01-27 15:33:00,
2013-01-27 10:38:00,23.1,2.9,30.57,West,270,3.1,9.2,41,0.00,CLR,,0.00,WeatherDisplay:10.37,2013-01-27 15:38:00,
2013-01-27 10:43:00,23.7,3.9,30.58,NNE,22,4.3,6.9,42,0.00,CLR,,0.00,WeatherDisplay:10.37,2013-01-27 15:43:00,
2013-01-27 10:48:00,23.7,3.9,30.58,West,270,3.2,11.5,42,0.00,CLR,,0.00,WeatherDisplay:10.37,2013-01-27 15:48:00,
2013-01-27 10:53:00,24.3,3.4,30.58,NE,45,1.5,3.5,40,0.00,CLR,,0.00,WeatherDisplay:10.37,2013-01-27 15:53:00,
2013-01-27 10:58:00,24.7,4.3,30.58,WNW,292,1.5,4.6,41,0.00,CLR,,0.00,WeatherDisplay:10.37,2013-01-27 15:58:00,
2013-01-27 11:03:00,24.9,3.9,30.58,WNW,292,2.6,9.2,40,0.00,CLR,,0.00,WeatherDisplay:10.37,2013-01-27 16:03:00,
2013-01-27 11:08:00,25.2,3.7,30.58,WNW,292,3.7,11.5,39,0.00,CLR,,0.00,WeatherDisplay:10.37,2013-01-27 16:08:00,
2013-01-27 11:13:00,25.3,4.3,30.57,South,180,1.4,4.6,40,0.00,CLR,,0.00,WeatherDisplay:10.37,2013-01-27 16:13:00,
2013-01-27 11:18:00,25.3,3.2,30.58,West,270,3.1,7.0,38,0.00,CLR,,0.00,WeatherDisplay:10.37,2013-01-27 16:18:00,
2013-01-27 11:23:00,25.3,3.2,30.57,WNW,292,2.9,7.0,38,0.00,CLR,,0.00,WeatherDisplay:10.37,2013-01-27 16:23:00,
2013-01-27 11:28:00,25.5,3.4,30.57,NE,45,4.5,6.0,38,0.00,CLR,,0.00,WeatherDisplay:10.37,2013-01-27 16:28:00,
2013-01-27 11:33:00,26.3,4.1,30.57,West,270,3.0,3.5,38,0.00,CLR,,0.00,WeatherDisplay:10.37,2013-01-27 16:33:00,
2013-01-27 11:38:00,26.3,4.1,30.56,SW,225,1.7,8.1,38,0.00,CLR,,0.00,WeatherDisplay:10.37,2013-01-27 16:38:00,
2013-01-27 11:43:00,26.6,4.4,30.55,SW,225,1.0,6.9,38,0.00,CLR,,0.00,WeatherDisplay:10.37,2013-01-27 16:43:00,
2013-01-27 11:48:00,26.6,3.8,30.55,WNW,292,3.7,10.4,37,0.00,CLR,,0.00,WeatherDisplay:10.37,2013-01-27 16:48:00,
2013-01-27 11:53:00,27.2,4.9,30.56,West,270,1.7,5.8,38,0.00,CLR,,0.00,WeatherDisplay:10.37,2013-01-27 16:53:00,
2013-01-27 11:58:00,27.5,4.0,30.56,NNW,337,2.9,9.2,36,0.00,CLR,,0.00,WeatherDisplay:10.37,2013-01-27 16:58:00,
2013-01-27 12:03:00,27.2,4.3,30.55,NW,315,3.4,9.2,37,0.00,CLR,,0.00,WeatherDisplay:10.37,2013-01-27 17:03:00,
2013-01-27 12:08:00,27.3,3.8,30.55,WNW,292,2.4,8.1,36,0.00,CLR,,0.00,WeatherDisplay:10.37,2013-01-27 17:08:00,
2013-01-27 12:13:00,27.8,4.3,30.55,NE,45,2.4,4.6,36,0.00,CLR,,0.00,WeatherDisplay:10.37,2013-01-27 17:13:00,
2013-01-27 12:18:00,28.0,5.0,30.55,WSW,247,2.5,3.5,37,0.00,CLR,,0.00,WeatherDisplay:10.37,2013-01-27 17:18:00,
2013-01-27 12:23:00,28.7,5.1,30.54,SE,135,1.1,3.5,36,0.00,CLR,,0.00,WeatherDisplay:10.37,2013-01-27 17:23:00,
2013-01-27 12:28:00,28.9,5.2,30.54,West,270,3.8,6.9,36,0.00,CLR,,0.00,WeatherDisplay:10.37,2013-01-27 17:28:00,
2013-01-27 12:33:00,28.3,4.1,30.54,WNW,292,3.5,11.5,35,0.00,CLR,,0.00,WeatherDisplay:10.37,2013-01-27 17:33:00,
2013-01-27 12:38:00,28.8,4.5,30.54,West,270,2.6,5.8,35,0.00,CLR,,0.00,WeatherDisplay:10.37,2013-01-27 17:38:00,
2013-01-27 12:43:00,28.7,3.8,30.55,NE,45,4.0,9.2,34,0.00,CLR,,0.00,WeatherDisplay:10.37,2013-01-27 17:43:00,
2013-01-27 12:48:00,28.7,3.8,30.54,WSW,247,1.6,6.9,34,0.00,CLR,,0.00,WeatherDisplay:10.37,2013-01-27 17:48:00,
2013-01-27 12:53:00,29.4,5.1,30.54,NNW,337,1.9,6.0,35,0.00,CLR,,0.00,WeatherDisplay:10.37,2013-01-27 17:53:00,
2013-01-27 12:58:00,29.2,4.3,30.54,NNE,22,1.7,5.8,34,0.00,CLR,,0.00,WeatherDisplay:10.37,2013-01-27 17:58:00,
2013-01-27 13:03:00,29.5,4.5,30.54,NE,45,2.8,3.5,34,0.00,CLR,,0.00,WeatherDisplay:10.37,2013-01-27 18:03:00,
2013-01-27 13:08:00,29.9,4.9,30.54,NE,45,2.6,5.8,34,0.00,CLR,,0.00,WeatherDisplay:10.37,2013-01-27 18:08:00,
2013-01-27 13:13:00,29.7,4.1,30.54,NW,315,1.8,6.0,33,0.00,CLR,,0.00,WeatherDisplay:10.37,2013-01-27 18:13:00,
2013-01-27 13:18:00,29.7,4.7,30.53,West,270,2.0,6.9,34,0.00,CLR,,0.00,WeatherDisplay:10.37,2013-01-27 18:18:00,
2013-01-27 13:23:00,30.1,5.7,30.53,WNW,292,2.7,4.6,35,0.00,CLR,,0.00,WeatherDisplay:10.37,2013-01-27 18:23:00,
2013-01-27 13:28:00,29.8,4.1,30.53,WNW,292,2.4,6.9,33,0.00,CLR,,0.00,WeatherDisplay:10.37,2013-01-27 18:28:00,
2013-01-27 13:34:00,29.6,5.3,30.54,West,270,4.4,6.9,35,0.00,CLR,,0.00,WeatherDisplay:10.37,2013-01-27 18:34:00,
2013-01-27 13:39:00,29.3,4.4,30.53,NW,315,3.8,6.9,34,0.00,CLR,,0.00,WeatherDisplay:10.37,2013-01-27 18:39:00,
2013-01-27 13:44:00,29.7,4.7,30.54,NE,45,3.1,6.9,34,0.00,CLR,,0.00,WeatherDisplay:10.37,2013-01-27 18:44:00,
2013-01-27 13:49:00,29.7,5.3,30.54,NW,315,3.3,7.0,35,0.00,CLR,,0.00,WeatherDisplay:10.37,2013-01-27 18:49:00,
2013-01-27 13:54:00,29.7,4.1,30.54,NE,45,2.4,9.2,33,0.00,CLR,,0.00,WeatherDisplay:10.37,2013-01-27 18:54:00,
2013-01-27 13:59:00,30.1,3.7,30.53,West,270,2.4,6.9,32,0.00,CLR,,0.00,WeatherDisplay:10.37,2013-01-27 18:59:00,
2013-01-27 14:04:00,30.1,3.1,30.53,WSW,247,2.8,6.9,31,0.00,CLR,,0.00,WeatherDisplay:10.37,2013-01-27 19:04:00,
2013-01-27 14:09:00,30.1,3.7,30.54,NNW,337,3.2,10.4,32,0.00,CLR,,0.00,WeatherDisplay:10.37,2013-01-27 19:09:00,
2013-01-27 14:14:00,30.1,3.1,30.54,NNW,337,5.7,12.0,31,0.00,CLR,,0.00,WeatherDisplay:10.37,2013-01-27 19:14:00,
2013-01-27 14:19:00,29.9,2.9,30.54,West,270,0.9,3.5,31,0.00,CLR,,0.00,WeatherDisplay:10.37,2013-01-27 19:19:00,
2013-01-27 14:24:00,30.6,3.5,30.54,West,270,0.5,2.3,31,0.00,CLR,,0.00,WeatherDisplay:10.37,2013-01-27 19:24:00,
2013-01-27 14:29:00,30.6,2.8,30.54,West,270,3.3,9.2,30,0.00,CLR,,0.00,WeatherDisplay:10.37,2013-01-27 19:29:00,
2013-01-27 14:35:00,30.6,3.5,30.54,West,270,2.1,8.1,31,0.00,CLR,,0.00,WeatherDisplay:10.37,2013-01-27 19:35:00,
2013-01-27 14:40:00,30.5,3.4,30.54,North,360,4.1,9.2,31,0.00,CLR,,0.00,WeatherDisplay:10.37,2013-01-27 19:40:00,
2013-01-27 14:49:00,30.4,4.0,30.54,West,270,4.4,6.0,32,0.00,CLR,,0.00,WeatherDisplay:10.37,2013-01-27 19:49:00,
2013-01-27 14:54:00,29.8,3.5,30.55,NNE,22,2.2,5.8,32,0.00,CLR,,0.00,WeatherDisplay:10.37,2013-01-27 19:54:00,
2013-01-27 14:59:00,29.9,3.6,30.54,NE,45,2.4,4.6,32,0.00,CLR,,0.00,WeatherDisplay:10.37,2013-01-27 19:59:00,
2013-01-27 15:04:00,29.9,3.6,30.54,West,270,1.9,3.5,32,0.00,CLR,,0.00,WeatherDisplay:10.37,2013-01-27 20:04:00,
2013-01-27 15:09:00,29.9,2.2,30.54,WNW,292,3.8,9.2,30,0.00,CLR,,0.00,WeatherDisplay:10.37,2013-01-27 20:09:00,
2013-01-27 15:14:00,29.9,2.9,30.54,NW,315,2.5,4.0,31,0.00,CLR,,0.00,WeatherDisplay:10.37,2013-01-27 20:14:00,
2013-01-27 15:20:00,29.8,2.8,30.54,West,270,5.8,5.8,31,0.00,CLR,,0.00,WeatherDisplay:10.37,2013-01-27 20:20:00,
2013-01-27 15:25:00,29.8,2.8,30.54,WNW,292,3.9,8.1,31,0.00,CLR,,0.00,WeatherDisplay:10.37,2013-01-27 20:25:00,
2013-01-27 15:30:00,29.8,2.1,30.54,West,270,2.3,8.1,30,0.00,CLR,,0.00,WeatherDisplay:10.37,2013-01-27 20:30:00,
2013-01-27 15:35:00,29.8,2.8,30.54,WSW,247,2.3,3.5,31,0.00,CLR,,0.00,WeatherDisplay:10.37,2013-01-27 20:35:00,
2013-01-27 15:40:00,29.8,2.8,30.54,WSW,247,2.1,4.0,31,0.00,CLR,,0.00,WeatherDisplay:10.37,2013-01-27 20:40:00,
2013-01-27 15:45:00,29.8,3.5,30.54,WSW,247,1.1,3.5,32,0.00,CLR,,0.00,WeatherDisplay:10.37,2013-01-27 20:45:00,
2013-01-27 15:50:00,29.7,3.4,30.54,WSW,247,2.1,4.0,32,0.00,CLR,,0.00,WeatherDisplay:10.37,2013-01-27 20:50:00,
2013-01-27 15:55:00,29.6,2.6,30.53,WNW,292,2.6,5.8,31,0.00,CLR,,0.00,WeatherDisplay:10.37,2013-01-27 20:55:00,
2013-01-27 16:00:00,29.3,3.0,30.54,WSW,247,1.2,3.5,32,0.00,CLR,,0.00,WeatherDisplay:10.37,2013-01-27 21:00:00,
2013-01-27 16:05:00,28.9,2.7,30.54,NE,45,0.8,3.5,32,0.00,CLR,,0.00,WeatherDisplay:10.37,2013-01-27 21:05:00,
2013-01-27 16:10:00,28.3,3.5,30.55,NW,315,0.8,2.3,34,0.00,CLR,,0.00,WeatherDisplay:10.37,2013-01-27 21:10:00,
2013-01-27 16:15:00,28.4,2.2,30.55,NNW,337,2.9,4.6,32,0.00,CLR,,0.00,WeatherDisplay:10.37,2013-01-27 21:15:00,
2013-01-27 16:20:00,28.2,2.7,30.55,West,270,1.7,5.8,33,0.00,CLR,,0.00,WeatherDisplay:10.37,2013-01-27 21:20:00,
2013-01-27 16:25:00,28.2,2.7,30.55,NNE,22,2.1,5.8,33,0.00,CLR,,0.00,WeatherDisplay:10.37,2013-01-27 21:25:00,
2013-01-27 16:30:00,28.1,2.6,30.55,WNW,292,1.6,3.5,33,0.00,CLR,,0.00,WeatherDisplay:10.37,2013-01-27 21:30:00,
2013-01-27 16:35:00,27.9,2.5,30.55,WSW,247,2.7,9.2,33,0.00,CLR,,0.00,WeatherDisplay:10.37,2013-01-27 21:35:00,
2013-01-27 16:40:00,27.8,2.4,30.56,NW,315,1.9,4.6,33,0.00,CLR,,0.00,WeatherDisplay:10.37,2013-01-27 21:40:00,
2013-01-27 16:45:00,27.6,4.1,30.57,NNW,337,1.3,3.5,36,0.00,CLR,,0.00,WeatherDisplay:10.37,2013-01-27 21:45:00,
2013-01-27 16:50:00,27.2,1.8,30.57,SW,225,1.2,2.3,33,0.00,CLR,,0.00,WeatherDisplay:10.37,2013-01-27 21:50:00,
2013-01-27 16:55:00,26.8,3.4,30.57,North,360,1.3,3.5,36,0.00,CLR,,0.00,WeatherDisplay:10.37,2013-01-27 21:55:00,
2013-01-27 17:00:00,26.8,2.1,30.57,West,270,1.6,3.5,34,0.00,CLR,,0.00,WeatherDisplay:10.37,2013-01-27 22:00:00,
2013-01-27 17:05:00,26.5,3.1,30.57,NE,45,1.2,2.3,36,0.00,CLR,,0.00,WeatherDisplay:10.37,2013-01-27 22:05:00,
2013-01-27 17:10:00,26.5,1.9,30.57,West,270,1.2,3.0,34,0.00,CLR,,0.00,WeatherDisplay:10.37,2013-01-27 22:10:00,
2013-01-27 17:15:00,26.7,1.4,30.57,SW,225,2.5,4.6,33,0.00,CLR,,0.00,WeatherDisplay:10.37,2013-01-27 22:15:00,
2013-01-27 17:20:00,26.4,1.1,30.57,NE,45,2.7,8.1,33,0.00,CLR,,0.00,WeatherDisplay:10.37,2013-01-27 22:20:00,
2013-01-27 17:25:00,26.2,1.6,30.58,NE,45,1.0,2.3,34,0.00,CLR,,0.00,WeatherDisplay:10.37,2013-01-27 22:25:00,
2013-01-27 17:30:00,26.1,1.5,30.58,West,270,0.9,3.0,34,0.00,CLR,,0.00,WeatherDisplay:10.37,2013-01-27 22:30:00,
2013-01-27 17:35:00,25.9,1.3,30.59,North,360,1.7,4.6,34,0.00,CLR,,0.00,WeatherDisplay:10.37,2013-01-27 22:35:00,
2013-01-27 17:40:00,25.9,1.3,30.59,WSW,247,2.4,4.0,34,0.00,CLR,,0.00,WeatherDisplay:10.37,2013-01-27 22:40:00,
2013-01-27 17:45:00,25.9,1.3,30.59,NNW,337,2.0,3.5,34,0.00,CLR,,0.00,WeatherDisplay:10.37,2013-01-27 22:45:00,
2013-01-27 17:50:00,25.9,0.7,30.59,NNW,337,2.3,6.9,33,0.00,CLR,,0.00,WeatherDisplay:10.37,2013-01-27 22:50:00,
2013-01-27 17:55:00,25.6,1.1,30.60,NNE,22,1.5,3.5,34,0.00,CLR,,0.00,WeatherDisplay:10.37,2013-01-27 22:55:00,
2013-01-27 18:00:00,25.3,2.6,30.60,WNW,292,0.8,2.3,37,0.00,CLR,,0.00,WeatherDisplay:10.37,2013-01-27 23:00:00,
2013-01-27 18:05:00,24.8,0.4,30.60,West,270,0.9,2.3,34,0.00,CLR,,0.00,WeatherDisplay:10.37,2013-01-27 23:05:00,
2013-01-27 18:10:00,24.5,1.3,30.61,WSW,247,1.4,3.5,36,0.00,CLR,,0.00,WeatherDisplay:10.37,2013-01-27 23:10:00,
2013-01-27 18:15:00,24.3,0.5,30.61,NNW,337,1.6,3.5,35,0.00,CLR,,0.00,WeatherDisplay:10.37,2013-01-27 23:15:00,
2013-01-27 18:20:00,24.4,1.2,30.61,North,360,1.3,2.3,36,0.00,CLR,,0.00,WeatherDisplay:10.37,2013-01-27 23:20:00,
2013-01-27 18:25:00,23.9,0.2,30.60,NNW,337,1.5,2.3,35,0.00,CLR,,0.00,WeatherDisplay:10.37,2013-01-27 23:25:00,
2013-01-27 18:30:00,23.4,0.9,30.60,NW,315,0.6,2.3,37,0.00,CLR,,0.00,WeatherDisplay:10.37,2013-01-27 23:30:00,
2013-01-27 18:35:00,22.9,1.6,30.60,North,360,0.6,2.3,39,0.00,CLR,,0.00,WeatherDisplay:10.37,2013-01-27 23:35:00,
2013-01-27 18:40:00,22.8,0.9,30.60,NNW,337,0.5,2.3,38,0.00,CLR,,0.00,WeatherDisplay:10.37,2013-01-27 23:40:00,
2013-01-27 18:45:00,22.4,1.1,30.60,NNW,337,0.3,2.3,39,0.00,CLR,,0.00,WeatherDisplay:10.37,2013-01-27 23:45:00,
2013-01-27 18:51:00,21.9,1.2,30.61,South,180,0.0,2.3,40,0.00,CLR,,0.00,WeatherDisplay:10.37,2013-01-27 23:51:00,
2013-01-27 18:56:00,21.7,2.1,30.61,West,270,0.1,2.3,42,0.00,CLR,,0.00,WeatherDisplay:10.37,2013-01-27 23:56:00,
2013-01-27 19:01:00,21.4,1.8,30.62,North,360,0.1,1.2,42,0.00,CLR,,0.00,WeatherDisplay:10.37,2013-01-28 00:01:00,
2013-01-27 19:06:00,20.9,2.4,30.63,North,360,0.2,0.0,44,0.00,CLR,,0.00,WeatherDisplay:10.37,2013-01-28 00:06:00,
2013-01-27 19:11:00,20.9,1.4,30.63,NNW,337,0.0,2.3,42,0.00,CLR,,0.00,WeatherDisplay:10.37,2013-01-28 00:11:00,
2013-01-27 19:16:00,20.6,2.1,30.63,NNW,337,0.1,0.0,44,0.00,CLR,,0.00,WeatherDisplay:10.37,2013-01-28 00:16:00,
2013-01-27 19:21:00,20.2,1.7,30.63,NNW,337,0.6,1.2,44,0.00,CLR,,0.00,WeatherDisplay:10.37,2013-01-28 00:21:00,
2013-01-27 19:26:00,19.9,2.4,30.63,NW,315,0.3,2.3,46,0.00,CLR,,0.00,WeatherDisplay:10.37,2013-01-28 00:26:00,
2013-01-27 19:31:00,19.7,2.2,30.63,NE,45,0.1,1.2,46,0.00,CLR,,0.00,WeatherDisplay:10.37,2013-01-28 00:31:00,
2013-01-27 19:36:00,19.6,2.1,30.63,WSW,247,0.0,0.0,46,0.00,CLR,,0.00,WeatherDisplay:10.37,2013-01-28 00:36:00,
2013-01-27 19:41:00,19.1,2.6,30.64,WSW,247,0.0,0.0,48,0.00,CLR,,0.00,WeatherDisplay:10.37,2013-01-28 00:41:00,
2013-01-27 19:46:00,18.9,2.4,30.64,WSW,247,0.7,2.3,48,0.00,CLR,,0.00,WeatherDisplay:10.37,2013-01-28 00:46:00,
2013-01-27 19:51:00,18.8,2.3,30.64,WSW,247,0.0,0.0,48,0.00,CLR,,0.00,WeatherDisplay:10.37,2013-01-28 00:51:00,
2013-01-27 19:56:00,18.2,2.2,30.64,WSW,247,0.0,0.0,49,0.00,CLR,,0.00,WeatherDisplay:10.37,2013-01-28 00:56:00,
2013-01-27 20:01:00,17.7,1.7,30.64,WSW,247,0.0,0.0,49,0.00,CLR,,0.00,WeatherDisplay:10.37,2013-01-28 01:01:00,
2013-01-27 20:06:00,17.5,2.0,30.64,WSW,247,0.0,0.0,50,0.00,CLR,,0.00,WeatherDisplay:10.37,2013-01-28 01:06:00,
2013-01-27 20:11:00,17.1,3.3,30.64,WSW,247,0.0,0.0,54,0.00,CLR,,0.00,WeatherDisplay:10.37,2013-01-28 01:11:00,
2013-01-27 20:16:00,16.9,2.3,30.64,WSW,247,0.0,0.0,52,0.00,CLR,,0.00,WeatherDisplay:10.37,2013-01-28 01:16:00,
2013-01-27 20:21:00,17.0,2.8,30.63,WSW,247,0.1,1.2,53,0.00,CLR,,0.00,WeatherDisplay:10.37,2013-01-28 01:21:00,
2013-01-27 20:26:00,16.9,2.7,30.64,WSW,247,0.0,0.0,53,0.00,CLR,,0.00,WeatherDisplay:10.37,2013-01-28 01:26:00,
2013-01-27 20:31:00,16.6,3.2,30.64,WSW,247,0.0,0.0,55,0.00,CLR,,0.00,WeatherDisplay:10.37,2013-01-28 01:31:00,
2013-01-27 20:36:00,16.7,2.9,30.64,WSW,247,0.0,0.0,54,0.00,CLR,,0.00,WeatherDisplay:10.37,2013-01-28 01:36:00,
2013-01-27 20:41:00,16.8,2.2,30.64,WSW,247,0.0,0.0,52,0.00,CLR,,0.00,WeatherDisplay:10.37,2013-01-28 01:41:00,
2013-01-27 20:46:00,16.6,2.8,30.64,WSW,247,0.0,0.0,54,0.00,CLR,,0.00,WeatherDisplay:10.37,2013-01-28 01:46:00,
2013-01-27 20:51:00,16.4,3.0,30.64,North,360,0.0,0.0,55,0.00,CLR,,0.00,WeatherDisplay:10.37,2013-01-28 01:51:00,
2013-01-27 20:56:00,16.2,2.4,30.65,North,360,0.0,0.0,54,0.00,CLR,,0.00,WeatherDisplay:10.37,2013-01-28 01:56:00,
2013-01-27 21:01:00,15.8,2.5,30.65,North,360,0.0,0.0,55,0.00,CLR,,0.00,WeatherDisplay:10.37,2013-01-28 02:01:00,
2013-01-27 21:06:00,15.8,4.0,30.64,North,360,0.0,0.0,59,0.00,CLR,,0.00,WeatherDisplay:10.37,2013-01-28 02:06:00,
2013-01-27 21:11:00,15.6,4.9,30.65,North,360,0.0,0.0,62,0.00,CLR,,0.00,WeatherDisplay:10.37,2013-01-28 02:11:00,
2013-01-27 21:16:00,15.8,4.7,30.65,WNW,292,0.2,1.0,61,0.00,CLR,,0.00,WeatherDisplay:10.37,2013-01-28 02:16:00,
2013-01-27 21:21:00,16.2,4.0,30.66,West,270,0.5,2.3,58,0.00,CLR,,0.00,WeatherDisplay:10.37,2013-01-28 02:21:00,
2013-01-27 21:26:00,16.5,4.3,30.65,West,270,0.2,1.2,58,0.00,CLR,,0.00,WeatherDisplay:10.37,2013-01-28 02:26:00,
2013-01-27 21:31:00,16.9,4.3,30.65,NW,315,1.0,2.3,57,0.00,CLR,,0.00,WeatherDisplay:10.37,2013-01-28 02:31:00,
2013-01-27 21:36:00,17.6,4.2,30.65,West,270,1.3,2.3,55,0.00,CLR,,0.00,WeatherDisplay:10.37,2013-01-28 02:36:00,
2013-01-27 21:41:00,17.8,4.3,30.65,NE,45,0.2,1.0,55,0.00,CLR,,0.00,WeatherDisplay:10.37,2013-01-28 02:41:00,
2013-01-27 21:46:00,17.5,4.5,30.65,NE,45,0.1,1.0,56,0.00,CLR,,0.00,WeatherDisplay:10.37,2013-01-28 02:46:00,
2013-01-27 21:51:00,17.2,5.3,30.65,NE,45,0.0,0.0,59,0.00,CLR,,0.00,WeatherDisplay:10.37,2013-01-28 02:51:00,
2013-01-27 21:56:00,16.9,5.0,30.65,North,360,0.0,0.0,59,0.00,CLR,,0.00,WeatherDisplay:10.37,2013-01-28 02:56:00,
2013-01-27 22:01:00,16.5,4.3,30.65,North,360,0.0,0.0,58,0.00,CLR,,0.00,WeatherDisplay:10.37,2013-01-28 03:01:00,
2013-01-27 22:06:00,16.1,4.3,30.66,North,360,0.0,0.0,59,0.00,CLR,,0.00,WeatherDisplay:10.37,2013-01-28 03:06:00,
2013-01-27 22:11:00,15.6,3.8,30.66,North,360,0.0,0.0,59,0.00,CLR,,0.00,WeatherDisplay:10.37,2013-01-28 03:11:00,
2013-01-27 22:16:00,15.2,3.4,30.66,North,360,0.1,1.2,59,0.00,CLR,,0.00,WeatherDisplay:10.37,2013-01-28 03:16:00,
2013-01-27 22:21:00,15.1,3.7,30.66,North,360,0.0,0.0,60,0.00,CLR,,0.00,WeatherDisplay:10.37,2013-01-28 03:21:00,
2013-01-27 22:26:00,15.2,4.1,30.66,North,360,0.0,0.0,61,0.00,CLR,,0.00,WeatherDisplay:10.37,2013-01-28 03:26:00,
2013-01-27 22:31:00,14.8,4.1,30.66,North,360,0.0,0.0,62,0.00,CLR,,0.00,WeatherDisplay:10.37,2013-01-28 03:31:00,
2013-01-27 22:36:00,14.6,3.9,30.66,West,270,0.1,0.0,62,0.00,CLR,,0.00,WeatherDisplay:10.37,2013-01-28 03:36:00,
2013-01-27 22:41:00,14.9,3.9,30.67,WNW,292,0.2,1.2,61,0.00,CLR,,0.00,WeatherDisplay:10.37,2013-01-28 03:41:00,
2013-01-27 22:46:00,15.3,5.3,30.67,West,270,0.0,1.2,64,0.00,CLR,,0.00,WeatherDisplay:10.37,2013-01-28 03:46:00,
2013-01-27 22:51:00,15.4,6.4,30.67,West,270,0.0,0.0,67,0.00,CLR,,0.00,WeatherDisplay:10.37,2013-01-28 03:51:00,
2013-01-27 22:56:00,15.5,5.5,30.66,West,270,0.0,0.0,64,0.00,CLR,,0.00,WeatherDisplay:10.37,2013-01-28 03:56:00,
2013-01-27 23:01:00,15.5,4.4,30.66,West,270,0.0,0.0,61,0.00,BKN,,0.00,WeatherDisplay:10.37,2013-01-28 04:01:00,
2013-01-27 23:06:00,15.6,4.9,30.66,West,270,0.0,0.0,62,0.00,BKN,,0.00,WeatherDisplay:10.37,2013-01-28 04:06:00,
2013-01-27 23:11:00,15.7,5.0,30.67,West,270,0.0,0.0,62,0.00,BKN,,0.00,WeatherDisplay:10.37,2013-01-28 04:11:00,
2013-01-27 23:16:00,15.5,4.8,30.67,West,270,0.0,0.0,62,0.00,BKN,,0.00,WeatherDisplay:10.37,2013-01-28 04:16:00,
2013-01-27 23:21:00,15.1,4.8,30.67,West,270,0.0,0.0,63,0.00,BKN,,0.00,WeatherDisplay:10.37,2013-01-28 04:21:00,
2013-01-27 23:26:00,14.9,4.9,30.68,West,270,0.0,0.0,64,0.00,BKN,,0.00,WeatherDisplay:10.37,2013-01-28 04:26:00,
2013-01-27 23:31:00,14.6,5.0,30.68,West,270,0.0,0.0,65,0.00,BKN,,0.00,WeatherDisplay:10.37,2013-01-28 04:31:00,
2013-01-27 23:36:00,14.3,4.3,30.67,West,270,0.0,0.0,64,0.00,BKN,,0.00,WeatherDisplay:10.37,2013-01-28 04:36:00,
2013-01-27 23:41:00,13.9,4.0,30.66,West,270,0.0,0.0,64,0.00,BKN,,0.00,WeatherDisplay:10.37,2013-01-28 04:41:00,
2013-01-27 23:46:00,13.6,3.3,30.66,West,270,0.0,0.0,63,0.00,BKN,,0.00,WeatherDisplay:10.37,2013-01-28 04:46:00,
2013-01-27 23:51:00,13.6,3.7,30.67,West,270,0.0,0.0,64,0.00,BKN,,0.00,WeatherDisplay:10.37,2013-01-28 04:51:00,
2013-01-27 23:56:00,13.8,3.5,30.67,West,270,0.0,0.0,63,0.00,BKN,,0.00,WeatherDisplay:10.37,2013-01-28 04:56:00,